Baltimore, MD

5:48 AM EDT on March 23, 2017 (GMT -0400)
Baltimore-Washington International

Weather History for KBWI - July, 2006

Change the Weather History Date:

Tuesday, July 18, 2006

  Actual Average Record
Temperature  
Mean Temperature 86 °F 77 °F  
Max Temperature 99 °F 87 °F 104 °F (2012)
Min Temperature 73 °F 67 °F 57 °F (2014)
Degree Days  
Heating Degree Days 0 0  
Month to date heating degree days 0  
Since 1 June heating degree days 15  
Since 1 July heating degree days 0  
Cooling Degree Days 21 12  
Month to date cooling degree days 214  
Year to date cooling degree days 536  
Since 1 June cooling degree days 452  
Growing Degree Days 36 (Base 50)    
Moisture  
Dew Point 69 °F    
Average Humidity 61    
Maximum Humidity 88    
Minimum Humidity 35    
Precipitation  
Precipitation 0.00 in 0.13 in 3.07 in (1907)
Month to date precipitation 2.32  
Year to date precipitation 22.81  
Snow  
Snow 0.00 in 0.00 in - ()
Month to date snowfall 0.0  
Since 1 July snowfall 0.0  
Snow Depth -    
Sea Level Pressure  
Sea Level Pressure 29.98 in    
Wind  
Wind Speed 4 mph (WNW)    
Max Wind Speed 17 mph    
Max Gust Speed 31 mph    
Visibility 8 miles    
Events Rain , Thunderstorm    
T = Trace of Precipitation, MM = Missing Value Source: NWS Daily Summary

Daily Weather History Graph

Daily Weather History Graph

Search for Another Location

Airport or City:

Trip Planner

Search our weather history database for the weather conditions in past years. The results will help you decide how hot, cold, wet, or windy it might be!

Date:

Astronomy

Jul. 18, 2006 Rise Set
Actual Time 5:55 AM EDT 8:30 PM EDT
Civil Twilight 5:23 AM EDT 9:01 PM EDT
Nautical Twilight 4:45 AM EDT 9:39 PM EDT
Astronomical Twilight 4:01 AM EDT 10:23 PM EDT
Moon 12:26 AM EDT (7/18) 2:40 PM EDT (7/18)
Length of Visible Light 15h 37m
Length of Day
14h 35m
Last Quarter, 40% of the Moon is Illuminated
Jul 18
Last Quarter
Jul 25
New
Aug 2
First Quarter
Aug 9
Full
Aug 15
Last Quarter

Hourly Weather History & Observations

Time (EDT) Temp. Heat Index Dew Point Humidity Pressure Visibility Wind Dir Wind Speed Gust Speed Precip Events Conditions
12:54 AM 79.0 °F - 71.1 °F 77% 29.97 in 7.0 mi SW 4.6 mph - N/A   Clear
1:54 AM 78.1 °F - 71.1 °F 79% 29.96 in 7.0 mi WSW 3.5 mph - N/A   Clear
2:54 AM 77.0 °F - 71.1 °F 82% 29.96 in 7.0 mi Calm Calm - N/A   Clear
3:54 AM 75.0 °F - 71.1 °F 87% 29.95 in 7.0 mi Calm Calm - N/A   Clear
4:54 AM 75.0 °F - 71.1 °F 87% 29.96 in 7.0 mi WSW 3.5 mph - N/A   Clear
5:54 AM 73.4 °F - 69.8 °F 88% 29.97 in 5.0 mi WSW 3.5 mph - N/A   Scattered Clouds
6:54 AM 78.1 °F - 72.0 °F 81% 29.98 in 5.0 mi Calm Calm - N/A   Haze
7:54 AM 81.0 °F 85.8 °F 73.0 °F 77% 29.99 in 10.0 mi Calm Calm - N/A   Scattered Clouds
8:54 AM 87.1 °F 92.8 °F 71.1 °F 59% 29.99 in 9.0 mi Calm Calm - N/A   Scattered Clouds
9:54 AM 89.1 °F 96.0 °F 72.0 °F 57% 29.99 in 8.0 mi WNW 4.6 mph - N/A   Scattered Clouds
10:54 AM 93.9 °F 99.1 °F 69.1 °F 44% 29.99 in 7.0 mi NNE 8.1 mph - N/A   Mostly Cloudy
11:54 AM 93.9 °F 100.3 °F 70.0 °F 46% 29.98 in 7.0 mi Variable 4.6 mph - N/A   Mostly Cloudy
12:54 PM 97.0 °F 102.8 °F 69.1 °F 40% 29.98 in 8.0 mi Variable 3.5 mph - N/A   Scattered Clouds
1:54 PM 98.1 °F 101.8 °F 66.0 °F 35% 29.97 in 8.0 mi Variable 5.8 mph - N/A   Scattered Clouds
2:54 PM 98.1 °F 104.4 °F 69.1 °F 39% 29.96 in 8.0 mi Variable 6.9 mph - N/A   Scattered Clouds
3:54 PM 98.1 °F 104.4 °F 69.1 °F 39% 29.96 in 7.0 mi NNW 8.1 mph - N/A   Scattered Clouds
4:54 PM 99.0 °F 104.2 °F 68.0 °F 36% 29.94 in 8.0 mi Variable 6.9 mph - N/A   Scattered Clouds
5:36 PM 93.2 °F 102.4 °F 73.4 °F 52% 29.94 in 4.0 mi South 11.5 mph 17.3 mph N/A   Haze
5:54 PM 93.0 °F 104.6 °F 75.0 °F 56% 29.94 in 4.0 mi SSW 9.2 mph - N/A   Haze
6:54 PM 91.0 °F 97.6 °F 71.1 °F 52% 29.95 in 6.0 mi South 6.9 mph - N/A   Haze
7:54 PM 86.0 °F 87.6 °F 64.9 °F 49% 30.00 in 10.0 mi NW 13.8 mph 25.3 mph N/A   Overcast
8:18 PM 82.4 °F 83.4 °F 62.6 °F 51% 30.00 in 10.0 mi NNW 17.3 mph 31.1 mph N/A Thunderstorm Thunderstorm
8:54 PM 78.1 °F - 64.9 °F 64% 30.03 in 10.0 mi NNE 4.6 mph - 0.00 in Rain , Thunderstorm Light Thunderstorms and Rain
9:07 PM 80.6 °F 82.3 °F 64.4 °F 58% 30.03 in 10.0 mi Variable 3.5 mph - 0.00 in   Overcast
9:54 PM 78.1 °F - 66.0 °F 66% 30.04 in 9.0 mi East 9.2 mph - 0.00 in   Overcast
10:54 PM 78.1 °F - 64.9 °F 64% 30.05 in 10.0 mi North 5.8 mph - N/A   Mostly Cloudy
11:54 PM 75.9 °F - 66.0 °F 71% 30.04 in 10.0 mi Calm Calm - N/A   Mostly Cloudy